Weather History for Morganton, NC

Change the Weather History Date:

Saturday, January 19, 2013

  Actual Average (KHKY) Record (KHKY)
Temperature  
Mean Temperature 38 °F -  
Max Temperature 54 °F 46 °F 67 °F (1949)
Min Temperature 22 °F 29 °F 7 °F (1976)
Degree Days  
Heating Degree Days 27    
Moisture  
Dew Point 26 °F    
Average Humidity 75    
Maximum Humidity 98    
Minimum Humidity 30    
Precipitation  
Precipitation 0.00 in - - ()
Sea Level Pressure  
Sea Level Pressure 30.36 in    
Wind  
Wind Speed 1 mph (SW)    
Max Wind Speed 10 mph    
Max Gust Speed -    
Visibility 9 miles    
Events      
Averages and records for this station are not official NWS values.
T = Trace of Precipitation, MM = Missing Value Source: NWS Daily Summary

Daily Weather History Graph

Daily Weather History Graph

Search for Another Location

Airport:

Trip Planner

Search our weather history database for the weather conditions in past years. The results will help you decide how hot, cold, wet, or windy it might be!

Date:

Astronomy

Jan. 19, 2013 Rise Set
Actual Time 7:34 AM EST 5:40 PM EST
Civil Twilight 7:06 AM EST 6:08 PM EST
Nautical Twilight 6:35 AM EST 6:39 PM EST
Astronomical Twilight 6:05 AM EST 7:09 PM EST
Moon 12:03 PM EST (1/19) 1:10 AM EST (1/19)
Length of Visible Light 11h 01m
Length of Day
10h 06m
First Quarter, 57% of the Moon is Illuminated
Jan 19
First Quarter
Jan 26
Full
Feb 3
Last Quarter
Feb 10
New
Feb 17
First Quarter

Hourly Weather History & Observations

Time (EST) Temp. Windchill Dew Point Humidity Pressure Visibility Wind Dir Wind Speed Gust Speed Precip Events Conditions
12:15 AM 28.9 °F - 28.2 °F 97% 30.51 in 7.0 mi Calm Calm - N/A   Clear
12:35 AM 28.0 °F - 27.5 °F 98% 30.51 in 7.0 mi Calm Calm - N/A   Clear
12:55 AM 28.4 °F - 27.9 °F 98% 30.50 in 7.0 mi Calm Calm - N/A   Clear
1:15 AM 27.7 °F - 27.1 °F 98% 30.49 in 7.0 mi Calm Calm - N/A   Clear
1:35 AM 26.4 °F - 25.9 °F 98% 30.49 in 7.0 mi Calm Calm - N/A   Clear
1:55 AM 26.2 °F - 25.7 °F 98% 30.49 in 7.0 mi Calm Calm - N/A   Clear
2:15 AM 25.2 °F - 24.6 °F 98% 30.49 in 10.0 mi Calm Calm - N/A   Clear
2:35 AM 24.8 °F - 24.3 °F 98% 30.49 in 10.0 mi Calm Calm - N/A   Clear
2:55 AM 24.4 °F - 23.7 °F 97% 30.49 in 10.0 mi Calm Calm - N/A   Clear
3:15 AM 24.8 °F - 24.3 °F 98% 30.49 in 10.0 mi Calm Calm - N/A   Clear
3:35 AM 24.3 °F - 23.4 °F 96% 30.49 in 10.0 mi Calm Calm - N/A   Clear
3:55 AM 23.9 °F - 23.2 °F 97% 30.49 in 10.0 mi Calm Calm - N/A   Clear
4:15 AM 23.7 °F - 23.0 °F 97% 30.49 in 10.0 mi Calm Calm - N/A   Clear
4:35 AM 23.9 °F 19.5 °F 23.0 °F 96% 30.48 in 10.0 mi NNW 3.5 mph - N/A   Clear
4:55 AM 25.0 °F - 24.3 °F 97% 30.49 in 10.0 mi Calm Calm - N/A   Clear
5:15 AM 24.6 °F - 24.1 °F 98% 30.49 in 3.0 mi Calm Calm - N/A   Clear
5:35 AM 23.7 °F - 23.0 °F 97% 30.49 in 7.0 mi Calm Calm - N/A   Clear
5:55 AM 22.8 °F - 21.9 °F 96% 30.48 in 10.0 mi Calm Calm - N/A   Clear
6:15 AM 22.5 °F - 21.6 °F 96% 30.48 in 10.0 mi Calm Calm - N/A   Clear
6:35 AM 24.4 °F - 23.7 °F 97% 30.48 in 10.0 mi Calm Calm - N/A   Clear
7:35 AM 24.6 °F - 23.9 °F 97% 30.47 in 5.0 mi Calm Calm - N/A   Clear
7:55 AM 22.3 °F - 21.4 °F 96% 30.47 in 7.0 mi Calm Calm - N/A   Clear
8:15 AM 24.1 °F - 23.5 °F 98% 30.47 in 7.0 mi Calm Calm - N/A   Clear
8:55 AM 28.2 °F - 27.3 °F 96% 30.47 in 5.0 mi Calm Calm - N/A   Clear
9:15 AM 28.9 °F - 27.9 °F 96% 30.47 in 4.0 mi Calm Calm - N/A   Clear
9:35 AM 29.7 °F - 28.2 °F 94% 30.47 in 5.0 mi Calm Calm - N/A   Clear
10:35 AM 36.1 °F 33.5 °F 27.3 °F 70% 30.46 in 10.0 mi SW 3.5 mph - N/A   Clear
10:55 AM 38.7 °F - 30.0 °F 71% 30.45 in 10.0 mi Calm Calm - N/A   Clear
11:15 AM 41.5 °F 39.6 °F 28.2 °F 59% 30.44 in 10.0 mi WSW 3.5 mph - N/A   Clear
11:35 AM 42.8 °F 40.1 °F 27.5 °F 55% 30.42 in 10.0 mi South 4.6 mph - N/A   Clear
12:15 PM 45.0 °F 41.8 °F 26.8 °F 49% 30.38 in 10.0 mi SW 5.8 mph - N/A   Clear
12:35 PM 46.2 °F 43.3 °F 27.1 °F 47% 30.36 in 10.0 mi SSW 5.8 mph - N/A   Clear
12:55 PM 47.3 °F - 27.5 °F 46% 30.34 in 10.0 mi Calm Calm - N/A   Clear
1:15 PM 49.1 °F - 27.0 °F 42% 30.33 in 10.0 mi South 3.5 mph - N/A   Clear
1:35 PM 50.7 °F - 23.9 °F 35% 30.32 in 10.0 mi South 8.1 mph - N/A   Clear
1:55 PM 51.8 °F - 25.3 °F 36% 30.31 in 10.0 mi South 4.6 mph - N/A   Clear
2:15 PM 51.8 °F - 23.2 °F 33% 30.30 in 10.0 mi SW 4.6 mph - N/A   Clear
2:35 PM 52.9 °F - 23.7 °F 32% 30.28 in 10.0 mi SE 3.5 mph - N/A   Clear
2:55 PM 53.6 °F - 22.8 °F 30% 30.27 in 10.0 mi SSW 6.9 mph - N/A   Clear
3:15 PM 53.6 °F - 23.2 °F 31% 30.27 in 10.0 mi SW 3.5 mph - N/A   Clear
3:35 PM 53.8 °F - 23.7 °F 31% 30.26 in 10.0 mi WSW 10.4 mph - N/A   Clear
3:55 PM 54.0 °F - 23.9 °F 31% 30.25 in 10.0 mi South 4.6 mph - N/A   Clear
4:15 PM 53.8 °F - 24.1 °F 32% 30.25 in 10.0 mi WSW 4.6 mph - N/A   Clear
4:35 PM 53.6 °F - 24.4 °F 32% 30.24 in 10.0 mi SW 3.5 mph - N/A   Clear
4:55 PM 52.9 °F - 24.6 °F 33% 30.24 in 10.0 mi WSW 5.8 mph - N/A   Clear
5:15 PM 51.4 °F - 25.5 °F 37% 30.24 in 10.0 mi SW 4.6 mph - N/A   Clear
5:35 PM 49.6 °F - 25.7 °F 39% 30.23 in 10.0 mi WSW 4.6 mph - N/A   Clear
5:55 PM 47.7 °F - 25.7 °F 42% 30.24 in 10.0 mi SW 3.5 mph - N/A   Clear
6:15 PM 46.6 °F - 26.1 °F 45% 30.24 in 10.0 mi SSW 3.5 mph - N/A   Clear
6:35 PM 38.8 °F 36.5 °F 30.0 °F 71% 30.25 in 10.0 mi SSW 3.5 mph - N/A   Clear
6:55 PM 33.8 °F - 30.6 °F 88% 30.25 in 10.0 mi Calm Calm - N/A   Clear
7:15 PM 32.9 °F - 29.7 °F 88% 30.25 in 10.0 mi Calm Calm - N/A   Clear
7:35 PM 32.0 °F - 29.8 °F 92% 30.25 in 10.0 mi Calm Calm - N/A   Clear
7:55 PM 32.7 °F - 29.1 °F 87% 30.25 in 10.0 mi Calm Calm - N/A   Clear
8:15 PM 31.5 °F - 29.1 °F 91% 30.24 in 10.0 mi Calm Calm - N/A   Clear
8:35 PM 30.9 °F - 28.2 °F 90% 30.24 in 10.0 mi Calm Calm - N/A   Clear
8:55 PM 31.1 °F - 28.2 °F 89% 30.23 in 10.0 mi Calm Calm - N/A   Clear
9:15 PM 31.1 °F - 28.2 °F 89% 30.22 in 10.0 mi Calm Calm - N/A   Clear
9:35 PM 35.1 °F - 27.5 °F 74% 30.22 in 10.0 mi Calm Calm - N/A   Clear
9:55 PM 30.9 °F - 27.9 °F 88% 30.21 in 10.0 mi Calm Calm - N/A   Clear
10:15 PM 30.2 °F - 27.9 °F 91% 30.21 in 10.0 mi Calm Calm - N/A   Clear
10:35 PM 29.7 °F - 28.2 °F 94% 30.21 in 10.0 mi Calm Calm - N/A   Clear
10:55 PM 29.8 °F 26.3 °F 27.7 °F 92% 30.19 in 10.0 mi South 3.5 mph - N/A   Clear
11:15 PM 31.1 °F - 27.5 °F 87% 30.20 in 10.0 mi Calm Calm - N/A   Clear
11:35 PM 30.0 °F - 27.1 °F 89% 30.19 in 10.0 mi Calm Calm - N/A   Clear
11:55 PM 29.8 °F - 27.3 °F 90% 30.18 in 10.0 mi Calm Calm - N/A   Clear